Location: Newark
(48.6461°N, 4.3644°W)
Time: 00:39:13
(UTC+00:00)

deb Explorer IX - Pass Details

Date: 31 January 2020
Orbit: 549 x 1099 km, 38.8° (Epoch: 20 February)

Event Time Altitude Azimuth Distance (km) Brightness Sun altitude
Rises 20:39:06 0° 239° (WSW) 3,510 ? -34.0°
Reaches altitude 10° 20:41:47 10° 230° (SW) 2,653 ? -34.4°
Enters shadow 20:44:36 24° 211° (SSW) 1,917 ? -34.8°
